Bookmark and Share
Track history (hours):
 

Rosa Maersk

Last reported at 2014-Apr-23 09:32 UTC. Time now 2014-Apr-23 09:46 UTC.
Position N 56°08' W 003°04'.

Length 172 m; draft 10.2 m.

Type: Ship. MMSI: 220288000.

NotesDate/timePositionNaut miles runAvg speedWind from/ knotsBaromVisibWave heightAir tempDewpointWater temp
2014-Apr-23 09:32N 56°08' W 003°04'0 0.0
2014-Apr-23 08:32N 56°08' W 003°04'0 0.0
2014-Apr-23 07:32N 56°08' W 003°04'0 0.0
2014-Apr-23 06:26N 56°08' W 003°04'0 0.0
2014-Apr-23 05:26N 56°08' W 003°04'0 0.0
2014-Apr-23 04:32N 56°08' W 003°04'0 0.0
2014-Apr-23 03:32N 56°08' W 003°04'0 0.0
2014-Apr-23 02:32N 56°08' W 003°04'0 0.0
2014-Apr-23 01:32N 56°08' W 003°04'0 0.0
2014-Apr-23 00:32N 56°08' W 003°04'0 0.0
2014-Apr-22 23:32N 56°08' W 003°04'2 2.3
2014-Apr-22 22:33N 56°06' W 003°04'9 9.1
2014-Apr-22 21:33N 56°01' W 003°19'9 9.6
2014-Apr-22 20:34N 56°02' W 003°35'3 3.3
2014-Apr-22 19:34N 56°02' W 003°41'0 0.3
2014-Apr-22 18:33N 56°02' W 003°42'0 0.0
2014-Apr-22 17:33N 56°02' W 003°42'0 0.0
2014-Apr-22 16:33N 56°02' W 003°42'0 0.0
2014-Apr-22 15:33N 56°02' W 003°42'0 0.0
2014-Apr-22 14:33N 56°02' W 003°42'0 0.0
2014-Apr-22 13:33N 56°02' W 003°42'0 0.0
2014-Apr-22 12:33N 56°02' W 003°42'0 0.0
2014-Apr-22 11:33N 56°02' W 003°42'0 0.0
2014-Apr-22 10:33N 56°02' W 003°42'0 0.0
2014-Apr-22 09:33N 56°02' W 003°42'0 0.0
2014-Apr-22 08:30N 56°02' W 003°42'0 0.0
2014-Apr-22 07:30N 56°02' W 003°42'0 0.0
2014-Apr-22 06:30N 56°02' W 003°42'0 0.0
2014-Apr-22 05:33N 56°02' W 003°42'0 0.0
2014-Apr-22 04:33N 56°02' W 003°42'0 0.0
2014-Apr-22 03:33N 56°02' W 003°42'0 0.0
2014-Apr-22 02:33N 56°02' W 003°42'0 0.0
2014-Apr-22 01:33N 56°02' W 003°42'0 0.0
2014-Apr-22 00:30N 56°02' W 003°42'0 0.0
2014-Apr-21 23:33N 56°02' W 003°42'0 0.0
2014-Apr-21 22:30N 56°02' W 003°42'0 0.0
2014-Apr-21 21:30N 56°02' W 003°42'0 0.0
2014-Apr-21 20:33N 56°02' W 003°42'0 0.0
2014-Apr-21 19:33N 56°02' W 003°42'0 0.0
2014-Apr-21 18:33N 56°02' W 003°42'0 0.0
2014-Apr-21 17:33N 56°02' W 003°42'0 0.0
2014-Apr-21 16:33N 56°02' W 003°42'0 0.0
2014-Apr-21 15:32N 56°02' W 003°42'0 0.0
2014-Apr-21 14:32N 56°02' W 003°42'0 0.0
2014-Apr-21 13:32N 56°02' W 003°42'0 0.0
2014-Apr-21 12:29N 56°02' W 003°42'0 0.0
2014-Apr-21 11:32N 56°02' W 003°42'0 0.0
2014-Apr-21 10:32N 56°02' W 003°42'0 0.0
2014-Apr-21 09:32N 56°02' W 003°42'0 0.0
2014-Apr-21 08:32N 56°02' W 003°42'0 0.0
2014-Apr-21 07:32N 56°02' W 003°42'0 0.0
2014-Apr-21 06:29N 56°02' W 003°42'0 0.0
2014-Apr-21 05:23N 56°02' W 003°42'0 0.0
2014-Apr-21 04:32N 56°02' W 003°42'0 0.0
2014-Apr-21 03:32N 56°02' W 003°42'0 0.0
2014-Apr-21 02:32N 56°02' W 003°42'0 0.0
2014-Apr-21 01:32N 56°02' W 003°42'0 0.0
2014-Apr-21 00:29N 56°02' W 003°42'0 0.0
2014-Apr-20 23:32N 56°02' W 003°42'0 0.0
2014-Apr-20 22:32N 56°02' W 003°42'0 0.0
2014-Apr-20 21:32N 56°02' W 003°42'0 0.0
2014-Apr-20 20:32N 56°02' W 003°42'0 0.0
2014-Apr-20 19:29N 56°02' W 003°42'0 0.0
2014-Apr-20 18:29N 56°02' W 003°42'0 0.0
2014-Apr-20 17:29N 56°02' W 003°42'0 0.0
2014-Apr-20 16:32N 56°02' W 003°42'0 0.0
2014-Apr-20 15:32N 56°02' W 003°42'0 0.0
2014-Apr-20 14:32N 56°02' W 003°42'0 0.0
2014-Apr-20 13:32N 56°02' W 003°42'0 0.0
2014-Apr-20 12:32N 56°02' W 003°42'0 0.0
2014-Apr-20 11:32N 56°02' W 003°42'0 0.0
2014-Apr-20 10:32N 56°02' W 003°42'0 0.0
2014-Apr-20 09:32N 56°02' W 003°42'0 0.0
2014-Apr-20 08:29N 56°02' W 003°42'0 0.0
2014-Apr-20 07:32N 56°02' W 003°42'0 0.0
2014-Apr-20 06:32N 56°02' W 003°42'0 0.4
2014-Apr-20 05:33N 56°02' W 003°41'4 4.1
2014-Apr-20 04:33N 56°02' W 003°34'10 9.6
2014-Apr-20 03:33N 56°02' W 003°16'7 7.2
2014-Apr-20 02:32N 56°06' W 003°06'0 0.0
2014-Apr-20 01:32N 56°06' W 003°06'0 0.0
2014-Apr-20 00:32N 56°06' W 003°06'0 0.0
2014-Apr-19 23:32N 56°06' W 003°06'0 0.0
2014-Apr-19 22:32N 56°06' W 003°06'0 0.1
2014-Apr-19 21:31N 56°06' W 003°06'0 0.0
2014-Apr-19 20:31N 56°06' W 003°06'0 0.0
2014-Apr-19 19:31N 56°06' W 003°06'0 0.1
2014-Apr-19 18:31N 56°06' W 003°06'0 0.0
2014-Apr-19 17:31N 56°06' W 003°06'0 0.0
2014-Apr-19 16:31N 56°06' W 003°06'0 0.0
2014-Apr-19 15:31N 56°06' W 003°06'0 0.0
2014-Apr-19 14:31N 56°06' W 003°06'0 0.0
2014-Apr-19 13:31N 56°06' W 003°06'0 0.0
2014-Apr-19 12:31N 56°06' W 003°06'0 0.0
2014-Apr-19 11:31N 56°06' W 003°06'0 0.0
2014-Apr-19 10:31N 56°06' W 003°06'0 0.1
2014-Apr-19 09:31N 56°06' W 003°06'0 0.0
2014-Apr-19 08:31N 56°06' W 003°06'0 0.0
2014-Apr-19 07:31N 56°06' W 003°06'0 0.0
2014-Apr-19 06:31N 56°06' W 003°06'0 0.1
2014-Apr-19 05:31N 56°06' W 003°06'0 0.0
2014-Apr-19 04:31N 56°06' W 003°06'0 0.0
2014-Apr-19 03:31N 56°06' W 003°06'0 0.0
2014-Apr-19 02:31N 56°06' W 003°06'0 0.0
2014-Apr-19 01:31N 56°06' W 003°06'0 0.0
2014-Apr-19 00:31N 56°06' W 003°06'0 0.0
2014-Apr-18 23:31N 56°06' W 003°06'0 0.1
2014-Apr-18 22:31N 56°06' W 003°06'0 0.1
2014-Apr-18 21:31N 56°06' W 003°06'0 0.0
2014-Apr-18 20:31N 56°06' W 003°06'0 0.0
2014-Apr-18 19:31N 56°06' W 003°06'0 0.1
2014-Apr-18 18:31N 56°06' W 003°06'0 0.1
2014-Apr-18 17:31N 56°06' W 003°06'0 0.0
2014-Apr-18 16:31N 56°06' W 003°06'0 0.0
2014-Apr-18 15:31N 56°06' W 003°06'0 0.0
2014-Apr-18 14:31N 56°06' W 003°06'0 0.0
2014-Apr-18 13:31N 56°06' W 003°06'0 0.0
2014-Apr-18 12:31N 56°06' W 003°06'0 0.0
2014-Apr-18 11:30N 56°06' W 003°06'0 0.1
2014-Apr-18 10:30N 56°06' W 003°06'0 0.1
2014-Apr-18 09:30N 56°06' W 003°06'0 0.0
2014-Apr-18 08:30N 56°06' W 003°06'0 0.0
2014-Apr-18 07:30N 56°06' W 003°06'0 0.0
2014-Apr-18 06:30N 56°06' W 003°06'0 0.0
2014-Apr-18 05:30N 56°06' W 003°06'0 0.0
2014-Apr-18 04:30N 56°06' W 003°06'0 0.1
2014-Apr-18 03:30N 56°06' W 003°06'0 0.0
2014-Apr-18 02:30N 56°06' W 003°06'0 0.0
2014-Apr-18 01:30N 56°06' W 003°06'0 0.0
2014-Apr-18 00:30N 56°06' W 003°06'0 0.0
2014-Apr-17 23:30N 56°06' W 003°06'0 0.1
2014-Apr-17 22:30N 56°06' W 003°06'0 0.1
2014-Apr-17 21:30N 56°06' W 003°06'0 0.1
2014-Apr-17 20:33N 56°06' W 003°06'5 5.4
2014-Apr-17 19:34N 56°07' W 002°56'7 7.2
2014-Apr-17 18:34N 56°08' W 002°43'7 7.2
2014-Apr-17 17:34N 56°07' W 002°30'7 7.2
2014-Apr-17 16:33N 56°04' W 002°19'7 6.5
2014-Apr-17 15:33N 56°01' W 002°09'7 6.2
2014-Apr-17 14:27N 55°58' W 001°58'7 6.6
2014-Apr-17 13:26N 55°54' W 001°47'6110.3
2014-Apr-17 07:27N 55°03' W 000°49'7 7.9
2014-Apr-17 06:32N 54°57' W 000°42'7 7.2
2014-Apr-17 05:33N 54°51' W 000°36'9 6.9
2014-Apr-17 04:13N 54°43' W 000°28'5 7.0
2014-Apr-17 03:34N 54°39' W 000°24'8 7.5
2014-Apr-17 02:33N 54°32' W 000°18'8 8.3
2014-Apr-17 01:33N 54°25' W 000°11'9 9.3
2014-Apr-17 00:34N 54°17' W 000°03'1010.3
2014-Apr-16 23:34N 54°08' E 000°05'1110.7
2014-Apr-16 22:33N 53°58' E 000°12'1110.7
2014-Apr-16 21:33N 53°48' E 000°18'1010.1
2014-Apr-16 20:34N 53°38' E 000°22'9 9.1
2014-Apr-16 19:33N 53°33' E 000°09'1212.0
2014-Apr-16 18:33N 53°38' W 000°09'1 0.6
2014-Apr-16 17:31N 53°38' W 000°10'0 0.0
2014-Apr-16 16:31N 53°38' W 000°10'0 0.0
2014-Apr-16 15:31N 53°38' W 000°10'0 0.0
2014-Apr-16 14:20N 53°38' W 000°10'0 0.0
2014-Apr-16 13:04N 53°38' W 000°10'0 0.0
2014-Apr-16 12:22N 53°38' W 000°10'0 0.0
2014-Apr-16 11:31N 53°38' W 000°10'0 0.0
2014-Apr-16 10:32N 53°38' W 000°10'0 0.0
2014-Apr-16 09:19N 53°38' W 000°10'0 0.0
2014-Apr-16 08:19N 53°38' W 000°10'0 0.0
2014-Apr-16 07:19N 53°38' W 000°10'0 0.0
2014-Apr-16 06:22N 53°38' W 000°10'0 0.0
2014-Apr-16 05:25N 53°38' W 000°10'0 0.0
2014-Apr-16 04:22N 53°38' W 000°10'0 0.0
2014-Apr-16 03:10N 53°38' W 000°10'0 0.0
2014-Apr-16 02:22N 53°38' W 000°10'0 0.0
2014-Apr-16 01:25N 53°38' W 000°10'0 0.0
2014-Apr-16 00:22N 53°38' W 000°10'0 0.0
2014-Apr-15 23:25N 53°38' W 000°10'0 0.0
2014-Apr-15 22:31N 53°38' W 000°10'0 0.0
2014-Apr-15 21:25N 53°38' W 000°10'0 0.0
2014-Apr-15 20:31N 53°38' W 000°10'0 0.0
2014-Apr-15 19:31N 53°38' W 000°10'0 0.0
2014-Apr-15 18:28N 53°38' W 000°10'0 0.0
2014-Apr-15 17:13N 53°38' W 000°10'0 0.0
2014-Apr-15 16:13N 53°38' W 000°10'0 0.0
2014-Apr-15 15:19N 53°38' W 000°10'0 0.0
2014-Apr-15 14:28N 53°38' W 000°10'0 0.0
2014-Apr-15 11:31N 53°38' W 000°10'0 0.0
2014-Apr-15 10:31N 53°38' W 000°10'0 0.0
2014-Apr-15 07:31N 53°38' W 000°10'0 0.0
2014-Apr-15 05:34N 53°38' W 000°10'16 8.0
2014-Apr-15 03:34N 53°34' E 000°16'5 0.8
2014-Apr-14 21:30N 53°37' E 000°24'0 0.0
2014-Apr-14 06:32N 53°37' E 000°24'0 0.0
2014-Apr-13 22:26N 53°37' E 000°24'0 0.0
2014-Apr-13 21:26N 53°37' E 000°24'0 0.0
2014-Apr-13 20:29N 53°37' E 000°24'0 0.1
2014-Apr-13 19:26N 53°37' E 000°24'0 0.0
2014-Apr-13 14:11N 53°37' E 000°24'0 0.0
2014-Apr-13 13:32N 53°37' E 000°24'0 0.1
2014-Apr-13 11:32N 53°37' E 000°24'0 0.0
2014-Apr-13 10:05N 53°37' E 000°24'  

Dump ship's entire track history

sailing weather and tide predictions

Rosa Maersk — OVST2 — position and weather